Regional Weather Roundup
Issued by NWS

Home | Current Version | Previous Version | Text Only | Print | Product List | Glossary On
Versions: 1 2 3 4 5 6 7 8 9 10 11 12 13 14 15 16 17 18 19 20 21 22 23 24 25 26 27 28 29 30 31 32 33 34 35 36 37 38 39 40 41 42 43 44 45 46 47 48 49 50
000
ASUS46 KPQR 311110
RWROR

OREGON REGIONAL WEATHER ROUNDUP
NATIONAL WEATHER SERVICE PORTLAND OR
400 AM PDT FRI JUL 31 2015

NOTE: "FAIR" INDICATES FEW OR NO CLOUDS BELOW 12,000 FEET WITH
NO SIGNIFICANT WEATHER AND/OR OBSTRUCTIONS TO VISIBILITY.

ORZ001>013-311200-
NORTHWEST OREGON


CITY           SKY/WX    TMP DP  RH WIND       PRES   REMARKS
ASTORIA        CLEAR     53  51  93 S5        30.07R
NEWPORT        CLEAR     50  48  93 CALM      30.07S FOG
PORTLAND       CLEAR     69  54  58 CALM      30.03R
VANCOUVER WA   CLEAR     64  49  57 CALM      30.02S
SCAPPOOSE      CLEAR     61  48  62 MISG      30.02R
HILLSBORO      CLEAR     63  50  62 CALM      30.02S
AURORA         CLEAR     67  53  61 CALM      30.03R
MCMINNVILLE    CLEAR     65  53  65 VRB5      30.02S
SALEM          CLEAR     66  52  60 CALM      30.01R
CORVALLIS      CLEAR     63  48  59 CALM      30.04R
EUGENE         CLEAR     61  52  72 CALM      30.02S
$$

ORZ021-028-311200-
SOUTHWEST OREGON


CITY           SKY/WX    TMP DP  RH WIND       PRES   REMARKS
NORTH BEND     CLEAR     55  54  94 W3        30.04S
BROOKINGS      CLEAR     56  56 100 CALM      30.01F
ROSEBURG       PTCLDY    71  53  52 CALM      30.02S
SEXTON SUMMIT  HAZE      79  39  23 CALM      30.20S VSB 3/4
MEDFORD        PTCLDY    75  51  43 SW5       30.04S
$$

ORZ014>016-041-311200-
COLUMBIA GORGE


CITY           SKY/WX    TMP DP  RH WIND       PRES   REMARKS
TROUTDALE      CLEAR     63  54  72 E5        30.01S
THE DALLES     CLEAR     73  49  42 NW3       29.99R
$$

ORZ029>031-041-044-049-050-061>064-502-503-505>511-311200-
EASTERN OREGON


CITY           SKY/WX    TMP DP  RH WIND       PRES   REMARKS
REDMOND        PTCLDY    62  35  36 S7        30.16R
BEND           PTCLDY    64  37  36 S6        30.19R
PRINEVILLE     CLEAR     61  32  33 S7        30.16S
KLAMATH FALLS  PTCLDY    58  45  62 NE5       30.22R
LAKEVIEW       CLEAR     59  36  41 NW12      30.25R
HERMISTON      PTCLDY    66  40  38 S7        29.99R
PENDLETON      CLOUDY    67  31  26 CALM      30.03R
JOHN DAY       CLEAR     64  31  29 E7        30.21S
MEACHAM        CLOUDY    48  38  68 CALM      30.21S
LA GRANDE      MOCLDY    57  34  41 NW5       30.16R
BAKER CITY     PTCLDY    50  44  80 CALM      30.20R
BURNS          CLEAR     51  31  46 N6        30.23S
ROME             N/A     59  23  25 SE3       30.21S
ONTARIO        CLEAR     56  43  61 W5        30.13R
$$



USA.gov is the U.S. government's official web portal to all federal, state and local government web resources and services.